Location: Napa Soda Springs
(38.3907°N, 122.2794°W)
Time: 15:43:30
(UTC+00:00)

Meteor 1-31 Rocket - Pass Details

Date: 29 October 2020
Orbit: 521 x 546 km, 97.6° (Epoch: 01 December)

Event Time Altitude Azimuth Distance (km) Brightness Sun altitude
Rises 13:40:57 0° 358° (N) 2,722 6.3 -10.8°
Reaches altitude 10° 13:43:19 10° 346° (NNW) 1,823 5.2 -10.3°
Maximum altitude 13:46:36 26° 290° (WNW) 1,110 3.8 -9.7°
Drops below altitude 10° 13:49:51 10° 233° (SW) 1,806 5.1 -9.0°
Sets 13:52:12 0° 221° (SW) 2,690 6.0 -8.6°
